Retour au catalogue

STARLINK-3832

ActifCommunicationsVLEO
NORAD 52646·PAYLOAD·🇺🇸 United States

Lancé May 14, 2022 depuis Cape Canaveral Space Force Station

Loading…

Prochains Passages (prochaines 24 heures)

TLE

FraisSource: CelesTrak SupGP

Époque: Sep 15, 2026, 01:45 UTC

1 52646C 22052BA  26258.07340278  .00051936  00000+0  15760-2 0  2580
2 52646  53.1565 117.1193 0001358  86.2588  96.5325 15.33520967    19

Suivez STARLINK-3832 en temps réel avec AllMySat

Download on the App Store